[[{"header":{"parameterUnit":"m.s-1","parameterCategory":1,"la1":30.2992,"la2":30.254,"lo1":-89.0895,"lo2":-89.0443,"dy":0.0025,"dx":0.0025,"nx":19,"ny":19,"refTime":"2026-03-17T21:00:00:Z","depth":0,"parameterNumber":2,"parameterNumberName":"U-component_of_WINDS"},"data":[0,0,0,-0.391,-0.391,-0.3915,-0.3915,-0.3938,-0.3939,0,0,0,0,0,0,0,0,0,0,0,-0.3917,-0.3918,-0.391,-0.391,-0.3915,-0.3915,-0.3938,-0.3939,0,0,0,0,0,0,0,0,0,0,0,-0.3917,-0.3917,-0.3918,-0.3911,-0.3915,-0.3915,-0.3938,-0.3929,0,0,0,0,0,0,0,0,0,0,-0.3922,-0.3936,-0.3917,-0.3918,-0.3911,-0.3915,-0.3915,-0.3928,-0.393,-0.3943,0,-0.3955,0,-0.3948,-0.3941,-0.3941,0,0,0,-0.3905,-0.3935,-0.3928,-0.3918,-0.3911,-0.3915,-0.3911,-0.3929,-0.393,-0.3945,-0.3956,-0.3956,-0.3948,-0.3941,-0.3942,-0.4036,-0.4037,0,0,-0.3904,-0.3923,-0.3927,-0.393,-0.3928,-0.3911,-0.3912,-0.393,-0.3943,-0.3956,-0.3956,-0.3948,-0.3942,-0.3942,-0.4035,-0.4036,0,0,0,-0.3908,-0.3923,-0.3916,-0.3929,-0.3929,-0.3912,-0.3912,-0.3942,-0.3938,-0.3957,-0.3949,-0.3942,-0.3942,-0.4035,-0.4036,-0.409,0,0,0,-0.3907,-0.3925,-0.3916,-0.3927,-0.3928,-0.3935,-0.3925,-0.3937,-0.3938,-0.3948,-0.3942,-0.3943,-0.4034,-0.4035,-0.4086,-0.4113,0,0,0,-0.3914,-0.3925,-0.3929,-0.3928,-0.3931,-0.3934,-0.3931,-0.3937,-0.3934,-0.3941,-0.3943,-0.4033,-0.4035,-0.4083,-0.4108,-0.4144,0,0,0,-0.3927,-0.3976,-0.393,-0.3982,-0.3931,-0.3967,-0.3931,-0.3957,-0.3969,-0.3942,-0.4034,-0.4036,-0.4083,-0.4105,-0.4141,-0.4179,-0.4196,0,0,-0.3999,-0.3985,-0.4014,-0.3973,-0.4022,-0.3964,-0.4022,-0.4016,-0.4001,-0.4026,-0.4028,-0.4087,-0.4107,-0.4144,-0.4283,-0.4297,0,0,0,-0.4044,-0.4065,-0.4074,-0.4086,-0.4083,-0.4083,-0.4067,-0.4065,-0.4086,-0.4017,-0.4109,-0.412,-0.4141,-0.4159,-0.417,-0.4188,-0.4044,-0.4044,-0.4044,-0.4173,-0.415,-0.4197,-0.4176,-0.4189,-0.4172,-0.4182,-0.4177,-0.415,-0.4172,-0.418,-0.4267,-0.4288,-0.4297,-0.4316,-0.4197,-0.4197,-0.4197,-0.4197,-0.4278,-0.4306,-0.4269,-0.4302,-0.4279,-0.4307,-0.4295,-0.4275,-0.43,-0.4259,-0.4276,-0.4235,-0.4313,-0.4328,-0.4201,-0.4201,-0.42,-0.42,-0.42,-0.4361,-0.4371,-0.4367,-0.4385,-0.4401,-0.4378,-0.4404,-0.4382,-0.4361,-0.4378,-0.4385,-0.4384,-0.4382,-0.4382,-0.4383,-0.4383,-0.4383,-0.4383,-0.4384,-0.445,-0.4444,-0.4468,-0.447,-0.4476,-0.4482,-0.4467,-0.4474,-0.4476,-0.4458,-0.4458,-0.4431,-0.4323,-0.4298,-0.4388,-0.4387,-0.4387,-0.4386,-0.4386,-0.4567,-0.4537,-0.4574,-0.4581,-0.4583,-0.4602,-0.4573,-0.4589,-0.4591,-0.4605,-0.4575,-0.4498,-0.4483,-0.4474,-0.4453,-0.4577,-0.4577,-0.4577,-0.4577,-0.4639,-0.4629,-0.4662,-0.4675,-0.4685,-0.4663,-0.4709,-0.4699,-0.4685,-0.4685,-0.4664,-0.4634,-0.4625,-0.4615,-0.4603,-0.4583,-0.4738,-0.4738,-0.4738,-0.4712,-0.4702,-0.4743,-0.4728,-0.4728,-0.473,-0.4773,-0.4791,-0.4769,-0.4744,-0.4686,-0.468,-0.4631,-0.4615,-0.459,-0.4571,-0.4535,0,0]},{"header":{"parameterUnit":"m.s-1","parameterCategory":1,"la1":30.2992,"la2":30.254,"lo1":-89.0895,"lo2":-89.0443,"dy":0.0025,"dx":0.0025,"nx":19,"ny":19,"refTime":"2026-03-17T21:00:00:Z","depth":0,"parameterNumber":3,"parameterNumberName":"V-component_of_WINDS"},"data":[0,0,0,2.5614,2.5614,2.5586,2.5585,2.5542,2.5541,0,0,0,0,0,0,0,0,0,0,0,2.562,2.562,2.5614,2.5613,2.5586,2.5585,2.5542,2.5541,0,0,0,0,0,0,0,0,0,0,0,2.562,2.562,2.5619,2.5613,2.5586,2.5585,2.5542,2.5565,0,0,0,0,0,0,0,0,0,0,2.5593,2.5597,2.562,2.5619,2.5613,2.5586,2.5585,2.5566,2.5564,2.5552,0,2.5543,0,2.5541,2.5538,2.5538,0,0,0,2.5614,2.56,2.5594,2.5619,2.5613,2.5586,2.5598,2.5565,2.5562,2.5548,2.5542,2.5541,2.5541,2.5538,2.5537,2.547,2.5469,0,0,2.5616,2.5613,2.5597,2.5592,2.5599,2.5599,2.5598,2.5563,2.5555,2.5542,2.554,2.554,2.5537,2.5537,2.547,2.547,0,0,0,2.562,2.5614,2.561,2.5594,2.559,2.5598,2.5596,2.5557,2.5556,2.5539,2.5539,2.5537,2.5536,2.5471,2.547,2.5449,0,0,0,2.5621,2.5617,2.5611,2.5609,2.559,2.5574,2.5591,2.5558,2.5555,2.554,2.5537,2.5536,2.5471,2.547,2.5451,2.5439,0,0,0,2.5623,2.5617,2.5612,2.5609,2.5597,2.5574,2.5571,2.5558,2.5555,2.5538,2.5536,2.5471,2.547,2.5452,2.5441,2.5419,0,0,0,2.5623,2.5594,2.5612,2.5579,2.5597,2.5563,2.5572,2.5546,2.5529,2.5537,2.5471,2.547,2.5452,2.5442,2.542,2.5399,2.539,0,0,2.5584,2.5589,2.5569,2.5585,2.5547,2.5567,2.5525,2.5511,2.5511,2.5483,2.5481,2.545,2.5441,2.5419,2.5347,2.534,0,0,0,2.5556,2.5542,2.5532,2.5517,2.5508,2.5497,2.5491,2.5485,2.5462,2.5497,2.5437,2.5432,2.5419,2.5409,2.5403,2.5391,2.5466,2.5466,2.5466,2.5495,2.5498,2.5466,2.5465,2.545,2.5444,2.5431,2.5423,2.5429,2.5415,2.5406,2.5362,2.535,2.5345,2.5333,2.5396,2.5396,2.5396,2.5396,2.5436,2.5416,2.5427,2.5399,2.5401,2.5377,2.5369,2.5375,2.5351,2.5369,2.5358,2.5376,2.5338,2.5327,2.5395,2.5395,2.5395,2.5395,2.5395,2.5395,2.5386,2.5381,2.536,2.5342,2.5342,2.5319,2.5322,2.5324,2.5313,2.5303,2.5303,2.5302,2.5309,2.5309,2.5308,2.5308,2.5308,2.5308,2.5353,2.5349,2.533,2.5318,2.5308,2.5295,2.5289,2.5278,2.5267,2.5271,2.527,2.5277,2.5335,2.5348,2.5306,2.5306,2.5306,2.5307,2.5307,2.5289,2.5304,2.5275,2.5266,2.525,2.5231,2.5236,2.5214,2.5206,2.5194,2.5203,2.5247,2.5251,2.5255,2.5266,2.5205,2.5205,2.5205,2.5205,2.5253,2.5256,2.5227,2.5211,2.5195,2.5197,2.5161,2.5155,2.515,2.5145,2.5154,2.517,2.5175,2.5176,2.5182,2.5192,2.5113,2.5113,2.5113,2.5212,2.5214,2.5184,2.5183,2.5171,2.5159,2.5125,2.5103,2.5102,2.5109,2.514,2.5144,2.5168,2.5177,2.5183,2.5193,2.5211,0,0]}]]